Location: Praha
(50.0830°N, 14.4670°E)
Time: 18:54:02
(UTC+02:00)

ISS - Pass Details

Date: 16 July 2021
Orbit: 419 x 421 km, 51.6° (Epoch: 02 August)

Event Time Altitude Azimuth Distance (km) Brightness Sun altitude
Rises 22:08:34 0° 234° (SW) 2,361 0.1 -8.4°
Reaches altitude 10° 22:10:41 10° 229° (SW) 1,500 -0.9 -8.6°
Maximum altitude 22:13:57 49° 153° (SSE) 549 -3.6 -9.0°
Drops below altitude 10° 22:17:14 10° 78° (ENE) 1,505 -1.2 -9.3°
Sets 22:19:22 0° 73° (ENE) 2,371 -0.2 -9.5°
